TimeCEST,TemperatureF,Dew PointF,Humidity,Sea Level PressureIn,VisibilityMPH,Wind Direction,Wind SpeedMPH,Gust SpeedMPH,PrecipitationIn,Events,Conditions,WindDirDegrees,DateUTC
12:00 AM,58,56,90,30.13,6,Calm,Calm,,,,Mostly Cloudy,,2013-07-12 22:00:00
12:00 AM,59.0,55.4,88,30.12,-9999.0,WSW,1.2,-,N/A,,Clear,240,2013-07-12 22:00:00
1:00 AM,57,55,92,30.13,6,WSW,4.5,,,,Mostly Cloudy,250,2013-07-12 23:00:00
1:00 AM,57.2,55.4,94,30.12,-9999.0,WSW,3.5,-,N/A,,Clear,250,2013-07-12 23:00:00
2:00 AM,57,55,90,30.12,6,WSW,2.2,,,,Mostly Cloudy,240,2013-07-13 00:00:00
2:00 AM,57.2,55.4,94,30.12,-9999.0,Variable,1.2,-,N/A,,Clear,0,2013-07-13 00:00:00
3:00 AM,55.4,53.6,94,30.09,-9999.0,WSW,4.6,-,N/A,,Clear,240,2013-07-13 01:00:00
4:00 AM,56,55,94,30.12,6,WSW,4.5,,,,Mostly Cloudy,250,2013-07-13 02:00:00
4:00 AM,55.4,55.4,100,30.09,-9999.0,WSW,4.6,-,N/A,,Clear,250,2013-07-13 02:00:00
5:00 AM,57,55,91,30.12,6,West,2.2,,,,Mostly Cloudy,260,2013-07-13 03:00:00
5:00 AM,57.2,55.4,94,30.09,-9999.0,Variable,2.3,-,N/A,,Clear,0,2013-07-13 03:00:00
6:00 AM,56,55,94,30.12,12,Calm,Calm,,,,Mostly Cloudy,,2013-07-13 04:00:00
6:00 AM,55.4,55.4,100,30.12,-9999.0,Calm,Calm,-,N/A,,Clear,0,2013-07-13 04:00:00
7:00 AM,59,56,85,30.12,12,West,2.2,,,,Mostly Cloudy,280,2013-07-13 05:00:00
7:00 AM,59.0,55.4,88,30.12,-9999.0,Variable,1.2,-,N/A,,Clear,0,2013-07-13 05:00:00
8:00 AM,62,56,75,30.12,12,NW,8.9,,,,Mostly Cloudy,320,2013-07-13 06:00:00
8:00 AM,62.6,55.4,77,30.12,-9999.0,NW,6.9,-,N/A,,Clear,320,2013-07-13 06:00:00
9:00 AM,64,57,73,30.12,12,WNW,6.7,,,,Mostly Cloudy,300,2013-07-13 07:00:00
9:00 AM,64.4,57.2,77,30.12,-9999.0,WNW,5.8,-,N/A,,Clear,300,2013-07-13 07:00:00
10:00 AM,66,56,62,30.12,16,NW,6.7,,,,Scattered Clouds,320,2013-07-13 08:00:00
10:00 AM,66.2,55.4,68,30.12,6.2,NNW,6.9,-,N/A,,Scattered Clouds,330,2013-07-13 08:00:00
11:00 AM,67,54,53,30.12,16,NW,8.9,,,,Partly Cloudy,310,2013-07-13 09:00:00
11:00 AM,68.0,53.6,60,30.12,6.2,NW,6.9,-,N/A,,Scattered Clouds,320,2013-07-13 09:00:00
12:00 PM,68,53,49,30.10,16,NW,8.9,,,,Partly Cloudy,320,2013-07-13 10:00:00
12:00 PM,68.0,53.6,60,30.12,6.2,NW,10.4,-,N/A,,Mostly Cloudy,310,2013-07-13 10:00:00
1:00 PM,71,53,43,30.09,16,WNW,8.9,,,,Partly Cloudy,290,2013-07-13 11:00:00
1:00 PM,71.6,55.4,57,30.09,6.2,Variable,6.9,-,N/A,,Mostly Cloudy,0,2013-07-13 11:00:00
2:00 PM,71,54,45,30.08,16,NW,8.9,,,,Partly Cloudy,310,2013-07-13 12:00:00
2:00 PM,71.6,53.6,53,30.09,6.2,NW,8.1,-,N/A,,Scattered Clouds,320,2013-07-13 12:00:00
3:00 PM,73,50,33,30.07,16,NW,6.9,,,,Scattered Clouds,310,2013-07-13 13:00:00
3:00 PM,73.4,50.0,44,30.09,-9999.0,NW,13.8,-,N/A,,Clear,310,2013-07-13 13:00:00
4:00 PM,71,52,41,30.07,16,NNW,13.4,,,,Scattered Clouds,330,2013-07-13 14:00:00
4:00 PM,71.6,51.8,50,30.09,-9999.0,NNW,12.7,-,N/A,,Clear,330,2013-07-13 14:00:00
5:00 PM,72,52,39,30.07,16,NNW,8.9,,,,Partly Cloudy,330,2013-07-13 15:00:00
5:00 PM,71.6,53.6,53,30.09,-9999.0,NW,9.2,-,N/A,,Clear,320,2013-07-13 15:00:00
6:00 PM,72,49,34,30.06,16,NW,11.2,,,,Partly Cloudy,320,2013-07-13 16:00:00
6:00 PM,71.6,48.2,43,30.06,-9999.0,NNW,11.5,-,N/A,,Clear,330,2013-07-13 16:00:00
7:00 PM,72,49,33,30.06,16,North,6.7,,,,Scattered Clouds,350,2013-07-13 17:00:00
7:00 PM,73.4,48.2,41,30.06,-9999.0,North,8.1,-,N/A,,Clear,350,2013-07-13 17:00:00
8:00 PM,71,50,36,30.07,16,NNW,4.5,,,,Scattered Clouds,340,2013-07-13 18:00:00
8:00 PM,71.6,48.2,43,30.09,-9999.0,NNW,4.6,-,N/A,,Clear,340,2013-07-13 18:00:00
9:00 PM,68,51,43,30.09,16,NNW,6.7,,,,Scattered Clouds,340,2013-07-13 19:00:00
9:00 PM,68.0,50.0,52,30.09,-9999.0,NNW,6.9,-,N/A,,Clear,340,2013-07-13 19:00:00
10:00 PM,61,54,71,30.12,16,West,4.5,,,,,260,2013-07-13 20:00:00
10:00 PM,60.8,53.6,77,30.09,-9999.0,West,4.6,-,N/A,,Clear,270,2013-07-13 20:00:00
11:00 PM,59,54,77,30.13,16,WSW,4.5,,,,Clear,250,2013-07-13 21:00:00
11:00 PM,59.0,53.6,82,30.12,-9999.0,WSW,4.6,-,N/A,,Clear,250,2013-07-13 21:00:00